Tracking 34171 objects as of 21-May-2026
HD Live streaming from Space Station
objects crossing your sky now

KUIPER-00511

Track KUIPER-00511 now!
10-day predictions
KUIPER-00511 is classified as:


NORAD ID: 68888
Int'l Code: 2026-095AA
Perigee: 456.7 km
Apogee: 466.1 km
Inclination: 51.9 °
Period: 93.7 minutes
Semi major axis: 6832 km
RCS: Unknown
Launch date: April 28, 2026
Source: United States (US)
Launch site: AIR FORCE EASTERN TEST RANGE (AFETR)
Your satellite tracking list
Your tracking list is empty




NASA's NSSDC Master Catalog

Two Line Element Set (TLE):
1 68888U 26095AA  26140.92102177  .00022933  00000-0  62718-3 0  9998
2 68888  51.8799  14.2912 0006863 184.3495 175.7434 15.37247286  3532
Source of the keplerian elements: AFSPC